User: anonymous   Login
Location: Dittelbrunn
(50.0738°N, 10.2196°E)
Time: 05:42:24
(UTC+00:00)
Language:

Cosmos 2098 Rocket - Orbit

View from above orbital plane
View from above orbital plane
View from above satellite
View from above satellite

Ground track
Ground track

The orbit data is extracted from the following two-line orbital elements,

1 20775U 90078B   20333.42605670 +.00002271 +00000-0 +10745-3 0  9998
2 20775 082.9267 091.3681 0572127 046.6199 318.1190 14.34990749529250
Epoch (UTC): 28 November 2020 10:13:31
Eccentricity: 0.0572127
inclination: 82.9267°
perigee height: 366 km
apogee height: 1184 km
right ascension of ascending node: 91.3681°
argument of perigee: 46.6199°
revolutions per day: 14.34990749
mean anomaly at epoch: 318.1190°
orbit number at epoch: 52925

The dashed part of the orbit path shows where the satellite is in the earth's shadow,  

DLR